Meteo Giornale » Osservazioni meteo Slovenia » Ljubljana-Brnik

ore: 15:30 - Osservazioni Meteo Ljubljana-Brnik
Lat. 46° 13' N Lon. 14° 29' E Alt. 385 metri s.l.m.

molto_nuvoloso Europe/Ljubljana

17 °C

Molto Nuvoloso

Temp. 24 Ore

10 °C

17 °C

Est

14.8 Km/h

Dew point 7 °C

Umidità 51 %

Visibilità  10 Km

Il sole sorge alle ore 06:46

Il sole tramonta alle ore 19:03

Data e Ora Cielo e Fenomeni T °C DP °C Um. % Pres. hPa Vis. km Vento km/h
Oggi h: 15:30 molto_nuvoloso Molto Nuvoloso 17 7 51 1025 10 E 14.8
Oggi h: 15:00 molto_nuvoloso Molto Nuvoloso 16 6 51 1025 10 E 13
Oggi h: 14:30 molto_nuvoloso Molto Nuvoloso 16 7 55 1025 10 E 11.1
Oggi h: 14:00 molto_nuvoloso Molto Nuvoloso 16 7 55 1025 10 E 13
Oggi h: 13:30 molto_nuvoloso Molto Nuvoloso 16 7 55 1026 10 E 9.3
Oggi h: 12:30 molto_nuvoloso Molto Nuvoloso 16 6 51 1025 10 E 9.3
Oggi h: 12:00 nuvoloso Nuvoloso 15 6 54 1026 10 E 11.1
Oggi h: 11:30 nuvoloso Nuvoloso 16 8 58 1026 10 E/SE 7.4
Oggi h: 10:30 molto_nuvoloso Molto Nuvoloso 14 9 71 1026 10 N 3.7
Oggi h: 10:00 molto_nuvoloso Molto Nuvoloso 13 8 71 1025 10 N 3.7
Oggi h: 09:30 molto_nuvoloso Molto Nuvoloso 12 10 87 1025 10 N 1.8
Oggi h: 09:00 molto_nuvoloso Molto Nuvoloso 11 10 93 1025 10 N 1.8
Oggi h: 08:30 molto_nuvoloso Molto Nuvoloso 10 10 100 1025 10 N 1.8
Oggi h: 08:00 molto_nuvoloso Molto Nuvoloso 10 10 100 1024 7 N 1.8
Oggi h: 07:30 molto_nuvoloso Molto Nuvoloso 10 10 100 1024 7 N 1.8
Oggi h: 07:00 molto_nuvoloso Molto Nuvoloso 10 10 100 1024 10 N 3.7
Oggi h: 06:30 molto_nuvoloso Molto Nuvoloso 10 10 100 1024 10 N 5.5
Oggi h: 06:00 molto_nuvoloso Molto Nuvoloso 10 10 100 1023 10 N 1.8
Oggi h: 05:30 molto_nuvoloso Molto Nuvoloso 10 10 100 1023 10 N 3.7
Oggi h: 05:00 molto_nuvoloso Molto Nuvoloso 10 10 100 1023 10 N 1.8
Oggi h: 04:30 coperto Coperto 10 10 100 1023 10 N 1.8
Oggi h: 03:30 coperto Coperto 11 10 93 1023 10 N 3.7
Oggi h: 02:00 coperto Coperto 11 10 93 1023 10 O/NO 7.4
Oggi h: 01:30 coperto Coperto 11 10 93 1023 10 N 3.7
Oggi h: 01:00 coperto Coperto 11 10 93 1023 10 N 3.7
Oggi h: 00:30 coperto Coperto 11 10 93 1023 10 N 5.5
Oggi h: 00:00 coperto Coperto 11 11 100 1022 10 N 3.7
Ieri h: 23:30 molto_nuvoloso Molto Nuvoloso 11 10 93 1022 10 N 1.8
Ieri h: 23:00 molto_nuvoloso Molto Nuvoloso 11 10 93 1022 10 N 1.8
Ieri h: 22:30 molto_nuvoloso Molto Nuvoloso 11 11 100 1022 10 N 3.7
Ieri h: 22:00 molto_nuvoloso Molto Nuvoloso 11 10 93 1022 10 N 3.7
Ieri h: 21:30 molto_nuvoloso Molto Nuvoloso 11 10 93 1022 10 N 5.5
Ieri h: 20:30 molto_nuvoloso Molto Nuvoloso 11 10 93 1021 10 N 3.7
Ieri h: 20:00 molto_nuvoloso Molto Nuvoloso 11 10 93 1021 10 N 7.4
Ieri h: 19:30 coperto Coperto 12 10 87 1021 10 N 5.5
Ieri h: 19:00 coperto Coperto 12 10 87 1020 10 N 3.7
Ieri h: 18:30 coperto Coperto 12 10 87 1020 10 N 3.7
Ieri h: 18:00 coperto Coperto 12 10 87 1020 10 N 3.7
Ieri h: 17:30 coperto Coperto 12 10 87 1020 10 N 5.5
Ieri h: 17:00 coperto Coperto 12 10 87 1019 10 N 5.5